Location: Doverdale
(52.2833°N, 2.2000°W)
Time: 02:57:24
(UTC+00:00)

Cosmos 2227 Rocket - Pass Details

Date: 29 October 2020
Orbit: 839 x 845 km, 71.0° (Epoch: 23 November)

Event Time Altitude Azimuth Distance (km) Brightness Sun altitude
Rises 18:32:50 0° 326° (NW) 3,409 5.8 -17.0°
Reaches altitude 10° 18:35:23 10° 320° (NW) 2,471 5.2 -17.4°
Maximum altitude 18:40:43 44° 250° (WSW) 1,154 3.4 -18.2°
Drops below altitude 10° 18:46:02 10° 180° (S) 2,459 4.6 -19.0°
Sets 18:48:33 0° 174° (S) 3,391 5.3 -19.4°
